| time (UTC) | temp F | wind direction | speed MPH | gust MPH | rain 1hr in | rain 24hr in | rain mn in | humidity % | barometer mb |
| 20260906200851 | 62 | 180 | 2.0 | 3.0 | 0.00 | 0.00 | 0.00 | 50 | 1019.3 |
| 20260906200349 | 62 | 168 | 2.0 | 4.0 | 0.00 | 0.00 | 0.00 | 50 | 1019.2 |
| 20260906195847 | 62 | 168 | 2.0 | 4.0 | 0.00 | 0.00 | 0.00 | 50 | 1019.1 |
| 20260906195344 | 62 | 180 | 4.0 | 4.0 | 0.00 | 0.00 | 0.00 | 50 | 1018.9 |
| 20260906194842 | 63 | 180 | 3.0 | 4.0 | 0.00 | 0.00 | 0.00 | 50 | 1018.8 |
| 20260906194340 | 63 | 157 | 3.0 | 4.0 | 0.00 | 0.00 | 0.00 | 49 | 1019.0 |
| 20260906193837 | 63 | 168 | 2.0 | 4.0 | 0.00 | 0.00 | 0.00 | 49 | 1018.8 |
| 20260906193335 | 63 | 157 | 3.0 | 4.0 | 0.00 | 0.00 | 0.00 | 49 | 1018.8 |
| 20260906192833 | 63 | 180 | 3.0 | 3.0 | 0.00 | 0.00 | 0.00 | 49 | 1018.7 |
| 20260906192331 | 64 | 180 | 3.0 | 4.0 | 0.00 | 0.00 | 0.00 | 48 | 1018.6 |
| 20260906191829 | 64 | 180 | 4.0 | 6.0 | 0.00 | 0.00 | 0.00 | 48 | 1018.5 |
| 20260906191326 | 64 | 180 | 6.0 | 8.0 | 0.00 | 0.00 | 0.00 | 48 | 1018.5 |
| 20260906190825 | 64 | 157 | 5.0 | 8.0 | 0.00 | 0.00 | 0.00 | 48 | 1018.3 |
| 20260906190322 | 64 | 135 | 6.0 | 9.0 | 0.00 | 0.00 | 0.00 | 48 | 1018.4 |
| 20260906185819 | 64 | 135 | 7.0 | 7.0 | 0.00 | 0.00 | 0.00 | 48 | 1018.3 |
| 20260906185317 | 64 | 157 | 3.0 | 5.0 | 0.00 | 0.00 | 0.00 | 48 | 1018.2 |
| 20260906184814 | 64 | 180 | 5.0 | 6.0 | 0.00 | 0.00 | 0.00 | 48 | 1018.1 |
| 20260906184314 | 64 | 157 | 4.0 | 7.0 | 0.00 | 0.00 | 0.00 | 48 | 1018.1 |
| 20260906183810 | 64 | 135 | 2.0 | 3.0 | 0.00 | 0.00 | 0.00 | 48 | 1018.0 |
| 20260906183309 | 64 | 135 | 4.0 | 4.0 | 0.00 | 0.00 | 0.00 | 48 | 1018.0 |
| 20260906182806 | 64 | 180 | 2.0 | 4.0 | 0.00 | 0.00 | 0.00 | 48 | 1018.0 |
| 20260906182306 | 64 | 157 | 3.0 | 3.0 | 0.00 | 0.00 | 0.00 | 48 | 1017.9 |
| 20260906181812 | 65 | 157 | 3.0 | 5.0 | 0.00 | 0.00 | 0.00 | 47 | 1017.9 |
| 20260906181259 | 65 | 135 | 3.0 | 4.0 | 0.00 | 0.00 | 0.00 | 48 | 1017.9 |
| 20260906180756 | 65 | 180 | 3.0 | 4.0 | 0.00 | 0.00 | 0.00 | 47 | 1017.8 |
| 20260906180254 | 65 | 180 | 4.0 | 6.0 | 0.00 | 0.00 | 0.00 | 47 | 1017.8 |
| 20260906175752 | 65 | 157 | 4.0 | 6.0 | 0.00 | 0.00 | 0.00 | 47 | 1017.7 |
| 20260906175249 | 65 | 180 | 3.0 | 5.0 | 0.00 | 0.00 | 0.00 | 47 | 1017.8 |
| 20260906174747 | 65 | 180 | 3.0 | 4.0 | 0.00 | 0.00 | 0.00 | 48 | 1017.8 |
| 20260906174245 | 65 | 180 | 4.0 | 6.0 | 0.00 | 0.00 | 0.00 | 47 | 1017.8 |
| 20260906173743 | 65 | 168 | 6.0 | 6.0 | 0.00 | 0.00 | 0.00 | 47 | 1017.8 |
| 20260906173241 | 65 | 157 | 3.0 | 5.0 | 0.00 | 0.00 | 0.00 | 48 | 1017.7 |
| 20260906172738 | 65 | 180 | 2.0 | 3.0 | 0.00 | 0.00 | 0.00 | 47 | 1017.7 |
| 20260906172236 | 65 | 146 | 2.0 | 2.0 | 0.00 | 0.00 | 0.00 | 47 | 1017.6 |
| 20260906171733 | 65 | 180 | 2.0 | 3.0 | 0.00 | 0.00 | 0.00 | 47 | 1017.7 |
| 20260906171231 | 65 | 202 | 2.0 | 3.0 | 0.00 | 0.00 | 0.00 | 47 | 1017.7 |
| 20260906170729 | 65 | 180 | 2.0 | 4.0 | 0.00 | 0.00 | 0.00 | 47 | 1017.6 |
| 20260906170226 | 65 | 180 | 3.0 | 3.0 | 0.00 | 0.00 | 0.00 | 46 | 1017.5 |
| 20260906165724 | 65 | 270 | 1.0 | 1.0 | 0.00 | 0.00 | 0.00 | 45 | 1017.5 |
| 20260906165222 | 65 | 270 | 1.0 | 2.0 | 0.00 | 0.00 | 0.00 | 45 | 1017.5 |
| 20260906164720 | 65 | 270 | 1.0 | 2.0 | 0.00 | 0.00 | 0.00 | 45 | 1017.5 |
| 20260906163712 | 66 | 180 | 2.0 | 3.0 | 0.00 | 0.00 | 0.00 | 44 | 1017.5 |
| 20260906163210 | 66 | 180 | 1.0 | 1.0 | 0.00 | 0.00 | 0.00 | 44 | 1017.5 |
| 20260906162707 | 66 | 180 | 1.0 | 2.0 | 0.00 | 0.00 | 0.00 | 44 | 1017.3 |
| 20260906162206 | 66 | 146 | 2.0 | 2.0 | 0.00 | 0.00 | 0.00 | 44 | 1017.4 |
| 20260906161703 | 67 | 135 | 2.0 | 3.0 | 0.00 | 0.00 | 0.00 | 44 | 1017.4 |
| 20260906161202 | 67 | 180 | 3.0 | 3.0 | 0.00 | 0.00 | 0.00 | 44 | 1017.6 |
| 20260906160658 | 67 | 168 | 1.0 | 3.0 | 0.00 | 0.00 | 0.00 | 44 | 1017.5 |
| 20260906160156 | 67 | 180 | 3.0 | 4.0 | 0.00 | 0.00 | 0.00 | 44 | 1017.6 |
| 20260906155656 | 67 | 180 | 2.0 | 3.0 | 0.00 | 0.00 | 0.00 | 44 | 1017.8 |
| 20260906155152 | 67 | 180 | 4.0 | 4.0 | 0.00 | 0.00 | 0.00 | 44 | 1017.7 |
| 20260906154651 | 67 | 180 | 3.0 | 3.0 | 0.00 | 0.00 | 0.00 | 44 | 1017.9 |
| 20260906154147 | 67 | 180 | 1.0 | 2.0 | 0.00 | 0.00 | 0.00 | 44 | 1017.9 |
| 20260906153644 | 67 | 135 | 3.0 | 4.0 | 0.00 | 0.00 | 0.00 | 44 | 1017.9 |
| 20260906153142 | 67 | 180 | 4.0 | 5.0 | 0.00 | 0.00 | 0.00 | 44 | 1018.0 |
| 20260906152640 | 67 | 180 | 2.0 | 3.0 | 0.00 | 0.00 | 0.00 | 43 | 1017.9 |
| 20260906152138 | 68 | 135 | 2.0 | 2.0 | 0.00 | 0.00 | 0.00 | 43 | 1017.8 |
| 20260906151635 | 68 | 168 | 2.0 | 3.0 | 0.00 | 0.00 | 0.00 | 43 | 1018.1 |
| 20260906151133 | 68 | 180 | 4.0 | 5.0 | 0.00 | 0.00 | 0.00 | 43 | 1018.1 |
| 20260906150631 | 68 | 180 | 2.0 | 3.0 | 0.00 | 0.00 | 0.00 | 42 | 1017.8 |
| 20260906150129 | 68 | 191 | 1.0 | 6.0 | 0.00 | 0.00 | 0.00 | 42 | 1017.8 |
| 20260906145627 | 68 | 180 | 7.0 | 8.0 | 0.00 | 0.00 | 0.00 | 43 | 1017.8 |
| 20260906145124 | 69 | 180 | 3.0 | 4.0 | 0.00 | 0.00 | 0.00 | 40 | 1017.5 |
| 20260906144621 | 69 | 270 | 0.0 | 1.0 | 0.00 | 0.00 | 0.00 | 40 | 1017.3 |
| 20260906144119 | 69 | 270 | 1.0 | 1.0 | 0.00 | 0.00 | 0.00 | 40 | 1017.3 |
| 20260906143617 | 69 | 180 | 1.0 | 1.0 | 0.00 | 0.00 | 0.00 | 40 | 1017.3 |
| 20260906143116 | 69 | 180 | 0.0 | 1.0 | 0.00 | 0.00 | 0.00 | 39 | 1017.2 |
| 20260906142612 | 70 | 135 | 3.0 | 3.0 | 0.00 | 0.00 | 0.00 | 39 | 1017.3 |
| 20260906142110 | 70 | 225 | 0.0 | 1.0 | 0.00 | 0.00 | 0.00 | 39 | 1017.1 |
| 20260906141610 | 70 | 225 | 1.0 | 1.0 | 0.00 | 0.00 | 0.00 | 38 | 1017.2 |
| 20260906140604 | 70 | 135 | 1.0 | 1.0 | 0.00 | 0.00 | 0.00 | 38 | 1017.2 |
| 20260906135558 | 71 | 180 | 1.0 | 1.0 | 0.00 | 0.00 | 0.00 | 37 | 1017.1 |
| 20260906135056 | 71 | 135 | 0.0 | 0.0 | 0.00 | 0.00 | 0.00 | 37 | 1017.2 |
| 20260906134554 | 71 | 225 | 0.0 | 0.0 | 0.00 | 0.00 | 0.00 | 37 | 1017.1 |
| 20260906134053 | 72 | 180 | 0.0 | 0.0 | 0.00 | 0.00 | 0.00 | 37 | 1017.1 |
| 20260906133551 | 72 | 180 | 0.0 | 1.0 | 0.00 | 0.00 | 0.00 | 36 | 1017.0 |
| 20260906133047 | 72 | 180 | 0.0 | 1.0 | 0.00 | 0.00 | 0.00 | 36 | 1017.0 |
| 20260906132545 | 72 | 225 | 0.0 | 0.0 | 0.00 | 0.00 | 0.00 | 36 | 1017.0 |
| 20260906132043 | 72 | 225 | 1.0 | 1.0 | 0.00 | 0.00 | 0.00 | 36 | 1016.9 |
| 20260906131544 | 72 | 180 | 1.0 | 1.0 | 0.00 | 0.00 | 0.00 | 36 | 1017.0 |
| 20260906131038 | 72 | 146 | 0.0 | 0.0 | 0.00 | 0.00 | 0.00 | 36 | 1017.0 |
| 20260906130535 | 73 | 315 | 0.0 | 0.0 | 0.00 | 0.00 | 0.00 | 36 | 1017.0 |
| 20260906130033 | 73 | 315 | 0.0 | 0.0 | 0.00 | 0.00 | 0.00 | 36 | 1017.0 |
| 20260906125531 | 73 | 315 | 0.0 | 0.0 | 0.00 | 0.00 | 0.00 | 35 | 1016.9 |
| 20260906125029 | 73 | 315 | 0.0 | 0.0 | 0.00 | 0.00 | 0.00 | 35 | 1016.9 |
| 20260906124527 | 73 | 315 | 0.0 | 0.0 | 0.00 | 0.00 | 0.00 | 35 | 1016.9 |
| 20260906124024 | 73 | 315 | 0.0 | 0.0 | 0.00 | 0.00 | 0.00 | 35 | 1016.8 |
| 20260906123522 | 74 | 315 | 0.0 | 1.0 | 0.00 | 0.00 | 0.00 | 35 | 1016.8 |
| 20260906123020 | 74 | 0 | 1.0 | 2.0 | 0.00 | 0.00 | 0.00 | 35 | 1016.8 |
| 20260906122518 | 73 | 315 | 1.0 | 1.0 | 0.00 | 0.00 | 0.00 | 35 | 1016.9 |
| 20260906122015 | 74 | 315 | 0.0 | 1.0 | 0.00 | 0.00 | 0.00 | 35 | 1016.8 |
| 20260906121513 | 74 | 0 | 0.0 | 1.0 | 0.00 | 0.00 | 0.00 | 35 | 1016.7 |
| 20260906121010 | 74 | 0 | 1.0 | 2.0 | 0.00 | 0.00 | 0.00 | 34 | 1016.8 |
| 20260906120508 | 74 | 315 | 1.0 | 2.0 | 0.00 | 0.00 | 0.00 | 34 | 1016.9 |
| 20260906120006 | 74 | 315 | 0.0 | 0.0 | 0.00 | 0.00 | 0.00 | 34 | 1017.0 |
| 20260906115504 | 74 | 315 | 0.0 | 1.0 | 0.00 | 0.00 | 0.00 | 34 | 1016.9 |
| 20260906115002 | 74 | 337 | 2.0 | 2.0 | 0.00 | 0.00 | 0.00 | 34 | 1016.8 |
| 20260906114459 | 73 | 315 | 1.0 | 1.0 | 0.00 | 0.00 | 0.00 | 34 | 1016.7 |
| 20260906113957 | 73 | 315 | 0.0 | 1.0 | 0.00 | 0.00 | 0.00 | 34 | 1016.7 |
| 20260906113456 | 73 | 315 | 1.0 | 2.0 | 0.00 | 0.00 | 0.00 | 34 | 1016.7 |
| 20260906112952 | 73 | 315 | 0.0 | 1.0 | 0.00 | 0.00 | 0.00 | 34 | 1016.7 |
| 20260906112450 | 73 | 315 | 0.0 | 0.0 | 0.00 | 0.00 | 0.00 | 34 | 1016.7 |
| 20260906111949 | 73 | 315 | 0.0 | 0.0 | 0.00 | 0.00 | 0.00 | 34 | 1016.6 |
| 20260906111445 | 74 | 78 | 2.0 | 2.0 | 0.00 | 0.00 | 0.00 | 34 | 1016.7 |
| 20260906110943 | 74 | 45 | 1.0 | 2.0 | 0.00 | 0.00 | 0.00 | 33 | 1016.5 |
| 20260906110441 | 74 | 45 | 3.0 | 3.0 | 0.00 | 0.00 | 0.00 | 33 | 1016.5 |
| 20260906105939 | 74 | 315 | 2.0 | 2.0 | 0.00 | 0.00 | 0.00 | 33 | 1016.3 |
| 20260906105437 | 74 | 315 | 1.0 | 2.0 | 0.00 | 0.00 | 0.00 | 32 | 1016.2 |
| 20260906104934 | 75 | 270 | 1.0 | 1.0 | 0.00 | 0.00 | 0.00 | 32 | 1016.2 |
| 20260906104432 | 75 | 315 | 1.0 | 1.0 | 0.00 | 0.00 | 0.00 | 32 | 1016.2 |
| 20260906103929 | 75 | 270 | 1.0 | 1.0 | 0.00 | 0.00 | 0.00 | 31 | 1016.1 |
| 20260906103427 | 75 | 270 | 0.0 | 2.0 | 0.00 | 0.00 | 0.00 | 31 | 1016.0 |
| 20260906102928 | 76 | 270 | 1.0 | 2.0 | 0.00 | 0.00 | 0.00 | 31 | 1015.9 |
| 20260906102422 | 76 | 315 | 1.0 | 2.0 | 0.00 | 0.00 | 0.00 | 31 | 1016.0 |
| 20260906101922 | 76 | 315 | 1.0 | 1.0 | 0.00 | 0.00 | 0.00 | 31 | 1016.0 |
| 20260906101418 | 76 | 270 | 0.0 | 0.0 | 0.00 | 0.00 | 0.00 | 31 | 1016.0 |
| 20260906100916 | 76 | 270 | 0.0 | 0.0 | 0.00 | 0.00 | 0.00 | 31 | 1015.9 |
| 20260906100414 | 76 | 180 | 0.0 | 0.0 | 0.00 | 0.00 | 0.00 | 31 | 1015.9 |
| 20260906095911 | 76 | 180 | 0.0 | 0.0 | 0.00 | 0.00 | 0.00 | 30 | 1015.8 |
| 20260906095409 | 76 | 180 | 0.0 | 1.0 | 0.00 | 0.00 | 0.00 | 30 | 1015.8 |
| 20260906094907 | 76 | 180 | 0.0 | 1.0 | 0.00 | 0.00 | 0.00 | 30 | 1015.8 |
| 20260906094404 | 77 | 45 | 0.0 | 1.0 | 0.00 | 0.00 | 0.00 | 30 | 1015.7 |
| 20260906093902 | 77 | 90 | 0.0 | 1.0 | 0.00 | 0.00 | 0.00 | 29 | 1015.6 |
| 20260906093359 | 77 | 45 | 0.0 | 1.0 | 0.00 | 0.00 | 0.00 | 29 | 1015.6 |
| 20260906092859 | 78 | 45 | 0.0 | 1.0 | 0.00 | 0.00 | 0.00 | 29 | 1015.5 |
| 20260906092355 | 78 | 45 | 1.0 | 1.0 | 0.00 | 0.00 | 0.00 | 29 | 1015.5 |
| 20260906091853 | 78 | 45 | 0.0 | 1.0 | 0.00 | 0.00 | 0.00 | 28 | 1015.4 |
| 20260906091352 | 78 | 45 | 0.0 | 1.0 | 0.00 | 0.00 | 0.00 | 28 | 1015.4 |
| 20260906090849 | 79 | 315 | 0.0 | 0.0 | 0.00 | 0.00 | 0.00 | 28 | 1015.3 |
| 20260906090346 | 79 | 90 | 0.0 | 1.0 | 0.00 | 0.00 | 0.00 | 27 | 1015.3 |
| 20260906085844 | 80 | 135 | 0.0 | 1.0 | 0.00 | 0.00 | 0.00 | 27 | 1015.2 |
| 20260906085341 | 80 | 135 | 0.0 | 1.0 | 0.00 | 0.00 | 0.00 | 26 | 1015.2 |
| 20260906084841 | 81 | 135 | 1.0 | 1.0 | 0.00 | 0.00 | 0.00 | 26 | 1015.1 |
| 20260906084337 | 81 | 180 | 1.0 | 1.0 | 0.00 | 0.00 | 0.00 | 26 | 1015.1 |
| 20260906083834 | 81 | 112 | 1.0 | 2.0 | 0.00 | 0.00 | 0.00 | 25 | 1015.0 |
| 20260906083332 | 82 | 90 | 0.0 | 1.0 | 0.00 | 0.00 | 0.00 | 25 | 1014.8 |
| 20260906082831 | 83 | 135 | 1.0 | 1.0 | 0.00 | 0.00 | 0.00 | 24 | 1014.9 |
| 20260906082328 | 83 | 90 | 0.0 | 1.0 | 0.00 | 0.00 | 0.00 | 24 | 1014.8 |
| 20260906081828 | 84 | 180 | 0.0 | 1.0 | 0.00 | 0.00 | 0.00 | 24 | 1014.7 |
| 20260906081326 | 84 | 135 | 1.0 | 1.0 | 0.00 | 0.00 | 0.00 | 23 | 1014.6 |
| 20260906080821 | 85 | 90 | 1.0 | 1.0 | 0.00 | 0.00 | 0.00 | 23 | 1014.6 |
| 20260906080318 | 85 | 90 | 1.0 | 1.0 | 0.00 | 0.00 | 0.00 | 23 | 1014.6 |
| 20260906075816 | 86 | 90 | 0.0 | 2.0 | 0.00 | 0.00 | 0.00 | 22 | 1014.5 |
| 20260906075314 | 86 | 90 | 2.0 | 3.0 | 0.00 | 0.00 | 0.00 | 22 | 1014.5 |
| 20260906074812 | 87 | 90 | 1.0 | 3.0 | 0.00 | 0.00 | 0.00 | 22 | 1014.4 |
| 20260906074309 | 87 | 90 | 2.0 | 4.0 | 0.00 | 0.00 | 0.00 | 21 | 1014.4 |
| 20260906073807 | 88 | 90 | 3.0 | 4.0 | 0.00 | 0.00 | 0.00 | 21 | 1014.4 |
| 20260906073305 | 89 | 90 | 3.0 | 3.0 | 0.00 | 0.00 | 0.00 | 20 | 1014.3 |
| 20260906072804 | 89 | 90 | 2.0 | 3.0 | 0.00 | 0.00 | 0.00 | 20 | 1014.3 |
| 20260906072301 | 90 | 90 | 3.0 | 5.0 | 0.00 | 0.00 | 0.00 | 19 | 1014.1 |
| 20260906071758 | 90 | 90 | 4.0 | 6.0 | 0.00 | 0.00 | 0.00 | 19 | 1014.2 |
| 20260906071257 | 90 | 45 | 2.0 | 3.0 | 0.00 | 0.00 | 0.00 | 20 | 1014.1 |
| 20260906070753 | 90 | 135 | 2.0 | 3.0 | 0.00 | 0.00 | 0.00 | 19 | 1014.2 |
| 20260906070252 | 90 | 180 | 2.0 | 4.0 | 0.00 | 0.00 | 0.00 | 20 | 1014.2 |
| 20260906065750 | 91 | 90 | 4.0 | 4.0 | 0.00 | 0.00 | 0.00 | 19 | 1014.1 |
| 20260906065248 | 91 | 90 | 3.0 | 5.0 | 0.00 | 0.00 | 0.00 | 19 | 1014.1 |
| 20260906064744 | 91 | 45 | 6.0 | 6.0 | 0.00 | 0.00 | 0.00 | 19 | 1014.1 |
| 20260906064242 | 91 | 180 | 3.0 | 6.0 | 0.00 | 0.00 | 0.00 | 19 | 1014.0 |
| 20260906063741 | 91 | 11 | 4.0 | 6.0 | 0.00 | 0.00 | 0.00 | 19 | 1014.0 |
| 20260906063239 | 91 | 90 | 5.0 | 7.0 | 0.00 | 0.00 | 0.00 | 19 | 1014.1 |
| 20260906062735 | 91 | 180 | 2.0 | 3.0 | 0.00 | 0.00 | 0.00 | 19 | 1014.1 |
| 20260906062234 | 91 | 157 | 2.0 | 6.0 | 0.00 | 0.00 | 0.00 | 19 | 1014.1 |
| 20260906061733 | 91 | 90 | 2.0 | 5.0 | 0.00 | 0.00 | 0.00 | 19 | 1014.0 |
| 20260906061228 | 92 | 90 | 6.0 | 8.0 | 0.00 | 0.00 | 0.00 | 19 | 1014.0 |
| 20260906060726 | 92 | 135 | 3.0 | 16.0 | 0.00 | 0.00 | 0.00 | 19 | 1014.0 |
| 20260906060314 | 92 | 90 | 12.0 | 12.0 | 0.00 | 0.00 | 0.00 | 18 | 1014.0 |
| 20260906055921 | 92 | 180 | 2.0 | 10.0 | 0.00 | 0.00 | 0.00 | 19 | 1014.1 |
| 20260906055511 | 92 | 180 | 10.0 | 10.0 | 0.00 | 0.00 | 0.00 | 18 | 1014.0 |
| 20260906055009 | 92 | 45 | 9.0 | 9.0 | 0.00 | 0.00 | 0.00 | 19 | 1014.1 |
| 20260906054805 | 92 | 281 | 1.0 | 9.0 | 0.00 | 0.00 | 0.00 | 19 | 1014.2 |
| 20260906054304 | 92 | 45 | 7.0 | 12.0 | 0.00 | 0.00 | 0.00 | 18 | 1014.2 |
| 20260906053800 | 92 | 90 | 7.0 | 18.0 | 0.00 | 0.00 | 0.00 | 18 | 1014.2 |
| 20260906053300 | 93 | 90 | 10.0 | 11.0 | 0.00 | 0.00 | 0.00 | 18 | 1014.2 |
| 20260906052955 | 93 | 146 | 2.0 | 12.0 | 0.00 | 0.00 | 0.00 | 18 | 1014.2 |
| 20260906052733 | 93 | 90 | 10.0 | 10.0 | 0.00 | 0.00 | 0.00 | 18 | 1014.2 |
| 20260906052551 | 93 | 337 | 0.0 | 8.0 | 0.00 | 0.00 | 0.00 | 20 | 1014.4 |
| 20260906052049 | 93 | 315 | 2.0 | 7.0 | 0.00 | 0.00 | 0.00 | 19 | 1014.4 |
| 20260906051548 | 93 | 180 | 3.0 | 10.0 | 0.00 | 0.00 | 0.00 | 19 | 1014.5 |
| 20260906051046 | 93 | 180 | 3.0 | 9.0 | 0.00 | 0.00 | 0.00 | 20 | 1014.4 |
| 20260906050544 | 92 | 180 | 4.0 | 10.0 | 0.00 | 0.00 | 0.00 | 19 | 1014.5 |
| 20260906050040 | 92 | 45 | 3.0 | 8.0 | 0.00 | 0.00 | 0.00 | 20 | 1014.6 |
| 20260906045538 | 92 | 292 | 2.0 | 13.0 | 0.00 | 0.00 | 0.00 | 20 | 1014.7 |
| 20260906045356 | 92 | 180 | 10.0 | 13.0 | 0.00 | 0.00 | 0.00 | 19 | 1014.6 |
| 20260906044854 | 93 | 135 | 7.0 | 7.0 | 0.00 | 0.00 | 0.00 | 19 | 1014.6 |
| 20260906044351 | 93 | 157 | 9.0 | 9.0 | 0.00 | 0.00 | 0.00 | 20 | 1014.8 |
| 20260906044059 | 93 | 0 | 0.0 | 4.0 | 0.00 | 0.00 | 0.00 | 20 | 1014.8 |
| 20260906043556 | 93 | 315 | 6.0 | 8.0 | 0.00 | 0.00 | 0.00 | 19 | 1014.6 |
| 20260906043054 | 93 | 270 | 5.0 | 11.0 | 0.00 | 0.00 | 0.00 | 20 | 1014.9 |
| 20260906042552 | 93 | 270 | 3.0 | 19.0 | 0.00 | 0.00 | 0.00 | 20 | 1014.8 |
| 20260906042450 | 93 | 258 | 19.0 | 19.0 | 0.00 | 0.00 | 0.00 | 20 | 1014.8 |
| 20260906042247 | 93 | 225 | 8.0 | 13.0 | 0.00 | 0.00 | 0.00 | 21 | 1015.0 |
| 20260906041745 | 92 | 270 | 6.0 | 15.0 | 0.00 | 0.00 | 0.00 | 20 | 1014.9 |
| 20260906041523 | 93 | 270 | 15.0 | 15.0 | 0.00 | 0.00 | 0.00 | 20 | 1014.9 |
| 20260906041112 | 92 | 247 | 6.0 | 10.0 | 0.00 | 0.00 | 0.00 | 21 | 1015.0 |
| 20260906040611 | 92 | 247 | 7.0 | 10.0 | 0.00 | 0.00 | 0.00 | 21 | 1015.1 |
| 20260906035914 | 92 | 337 | 1.0 | 7.0 | 0.00 | 0.00 | 0.00 | 21 | 1015.2 |
| 20260906035415 | 92 | 281 | 3.0 | 13.0 | 0.00 | 0.00 | 0.00 | 20 | 1015.2 |
| 20260906035201 | 92 | 292 | 13.0 | 13.0 | 0.00 | 0.00 | 0.00 | 21 | 1015.3 |
| 20260906034849 | 92 | 135 | 3.0 | 10.0 | 0.00 | 0.00 | 0.00 | 21 | 1015.2 |
| 20260906034345 | 92 | 225 | 2.0 | 7.0 | 0.00 | 0.00 | 0.00 | 21 | 1015.4 |
| 20260906033844 | 91 | 247 | 4.0 | 7.0 | 0.00 | 0.00 | 0.00 | 21 | 1015.5 |
| 20260906033340 | 91 | 0 | 1.0 | 5.0 | 0.00 | 0.00 | 0.00 | 21 | 1015.6 |
| 20260906032841 | 91 | 337 | 2.0 | 3.0 | 0.00 | 0.00 | 0.00 | 22 | 1015.7 |
| 20260906032337 | 90 | 157 | 6.0 | 8.0 | 0.00 | 0.00 | 0.00 | 21 | 1015.7 |
| 20260906031835 | 90 | 270 | 4.0 | 4.0 | 0.00 | 0.00 | 0.00 | 23 | 1015.9 |
| 20260906030831 | 90 | 247 | 1.0 | 9.0 | 0.00 | 0.00 | 0.00 | 23 | 1016.0 |
| 20260906030328 | 90 | 337 | 4.0 | 6.0 | 0.00 | 0.00 | 0.00 | 23 | 1015.9 |
| 20260906025827 | 90 | 213 | 6.0 | 7.0 | 0.00 | 0.00 | 0.00 | 23 | 1016.0 |
| 20260906025324 | 90 | 292 | 3.0 | 6.0 | 0.00 | 0.00 | 0.00 | 24 | 1016.2 |
| 20260906024821 | 89 | 270 | 4.0 | 7.0 | 0.00 | 0.00 | 0.00 | 24 | 1016.2 |
| 20260906024317 | 89 | 303 | 5.0 | 7.0 | 0.00 | 0.00 | 0.00 | 24 | 1016.4 |
| 20260906023815 | 89 | 315 | 4.0 | 7.0 | 0.00 | 0.00 | 0.00 | 25 | 1016.4 |
| 20260906023314 | 88 | 303 | 3.0 | 6.0 | 0.00 | 0.00 | 0.00 | 27 | 1016.6 |
| 20260906022812 | 88 | 303 | 3.0 | 5.0 | 0.00 | 0.00 | 0.00 | 27 | 1016.8 |
| 20260906022310 | 88 | 157 | 1.0 | 4.0 | 0.00 | 0.00 | 0.00 | 28 | 1016.9 |
| 20260906021809 | 87 | 123 | 1.0 | 5.0 | 0.00 | 0.00 | 0.00 | 28 | 1017.1 |
| 20260906021305 | 87 | 45 | 5.0 | 9.0 | 0.00 | 0.00 | 0.00 | 27 | 1017.1 |
| 20260906020805 | 87 | 45 | 4.0 | 8.0 | 0.00 | 0.00 | 0.00 | 28 | 1017.2 |
| 20260906020303 | 87 | 0 | 4.0 | 7.0 | 0.00 | 0.00 | 0.00 | 28 | 1017.3 |
| 20260906015759 | 87 | 22 | 4.0 | 8.0 | 0.00 | 0.00 | 0.00 | 27 | 1017.4 |
| 20260906015257 | 87 | 67 | 5.0 | 9.0 | 0.00 | 0.00 | 0.00 | 27 | 1017.5 |
| 20260906014755 | 86 | 202 | 1.0 | 5.0 | 0.00 | 0.00 | 0.00 | 29 | 1017.7 |
| 20260906014251 | 86 | 0 | 2.0 | 7.0 | 0.00 | 0.00 | 0.00 | 29 | 1017.9 |
| 20260906013749 | 86 | 90 | 1.0 | 5.0 | 0.00 | 0.00 | 0.00 | 30 | 1017.9 |
| 20260906013247 | 86 | 315 | 1.0 | 8.0 | 0.00 | 0.00 | 0.00 | 30 | 1018.0 |
| 20260906012746 | 85 | 303 | 2.0 | 9.0 | 0.00 | 0.00 | 0.00 | 30 | 1018.1 |
| 20260906012241 | 85 | 0 | 7.0 | 10.0 | 0.00 | 0.00 | 0.00 | 30 | 1018.2 |
| 20260906011740 | 85 | 45 | 7.0 | 8.0 | 0.00 | 0.00 | 0.00 | 29 | 1018.2 |
| 20260906011240 | 85 | 22 | 6.0 | 9.0 | 0.00 | 0.00 | 0.00 | 31 | 1018.4 |
| 20260906010735 | 84 | 270 | 2.0 | 5.0 | 0.00 | 0.00 | 0.00 | 33 | 1018.5 |
| 20260906010231 | 84 | 0 | 6.0 | 9.0 | 0.00 | 0.00 | 0.00 | 31 | 1018.5 |
| 20260906005731 | 84 | 0 | 3.0 | 9.0 | 0.00 | 0.00 | 0.00 | 32 | 1018.6 |
| 20260906005228 | 84 | 281 | 5.0 | 6.0 | 0.00 | 0.00 | 0.00 | 34 | 1018.7 |
| 20260906004725 | 83 | 0 | 4.0 | 6.0 | 0.00 | 0.00 | 0.00 | 34 | 1018.8 |
| 20260906004224 | 83 | 270 | 3.0 | 6.0 | 0.00 | 0.00 | 0.00 | 37 | 1019.0 |
| 20260906003722 | 82 | 45 | 6.0 | 6.0 | 0.00 | 0.00 | 0.00 | 34 | 1019.0 |
| 20260906003218 | 82 | 337 | 8.0 | 8.0 | 0.00 | 0.00 | 0.00 | 36 | 1019.1 |
| 20260906002717 | 81 | 0 | 6.0 | 6.0 | 0.00 | 0.00 | 0.00 | 38 | 1019.3 |
| 20260906002213 | 80 | 0 | 4.0 | 6.0 | 0.00 | 0.00 | 0.00 | 40 | 1019.4 |
| 20260906001711 | 79 | 0 | 1.0 | 5.0 | 0.00 | 0.00 | 0.00 | 43 | 1019.6 |
| 20260906001209 | 79 | 180 | 0.0 | 5.0 | 0.00 | 0.00 | 0.00 | 45 | 1019.7 |
| 20260906000736 | 78 | 11 | 8.0 | 9.0 | 0.00 | 0.00 | 0.00 | 45 | 1019.9 |
| 20260906000234 | 78 | 45 | 4.0 | 7.0 | 0.00 | 0.00 | 0.00 | 46 | 1019.9 |
| 20260905235732 | 78 | 45 | 4.0 | 5.0 | 0.00 | 0.00 | 0.00 | 47 | 1019.9 |
| 20260905235230 | 77 | 45 | 5.0 | 6.0 | 0.00 | 0.00 | 0.00 | 48 | 1019.9 |
| 20260905234728 | 76 | 0 | 8.0 | 8.0 | 0.00 | 0.00 | 0.00 | 48 | 1020.0 |
| 20260905234225 | 76 | 0 | 3.0 | 10.0 | 0.00 | 0.00 | 0.00 | 49 | 1020.1 |
| 20260905233723 | 75 | 45 | 3.0 | 6.0 | 0.00 | 0.00 | 0.00 | 51 | 1020.2 |
| 20260905233222 | 74 | 0 | 1.0 | 7.0 | 0.00 | 0.00 | 0.00 | 52 | 1020.2 |
| 20260905232718 | 74 | 33 | 4.0 | 7.0 | 0.00 | 0.00 | 0.00 | 52 | 1020.2 |
| 20260905232217 | 73 | 67 | 4.0 | 6.0 | 0.00 | 0.00 | 0.00 | 53 | 1020.3 |
| 20260905231713 | 73 | 0 | 3.0 | 5.0 | 0.00 | 0.00 | 0.00 | 54 | 1020.3 |
| 20260905231211 | 72 | 247 | 3.0 | 7.0 | 0.00 | 0.00 | 0.00 | 55 | 1020.3 |
| 20260905230709 | 71 | 45 | 7.0 | 7.0 | 0.00 | 0.00 | 0.00 | 56 | 1020.3 |
| 20260905230207 | 70 | 315 | 1.0 | 6.0 | 0.00 | 0.00 | 0.00 | 57 | 1020.4 |
| 20260905225705 | 70 | 0 | 6.0 | 8.0 | 0.00 | 0.00 | 0.00 | 57 | 1020.3 |
| 20260905225203 | 70 | 0 | 4.0 | 8.0 | 0.00 | 0.00 | 0.00 | 58 | 1020.4 |
| 20260905224700 | 69 | 337 | 3.0 | 6.0 | 0.00 | 0.00 | 0.00 | 59 | 1020.5 |
| 20260905224158 | 69 | 22 | 5.0 | 7.0 | 0.00 | 0.00 | 0.00 | 59 | 1020.5 |
| 20260905223656 | 69 | 0 | 5.0 | 8.0 | 0.00 | 0.00 | 0.00 | 60 | 1020.7 |
| 20260905223153 | 68 | 337 | 2.0 | 7.0 | 0.00 | 0.00 | 0.00 | 61 | 1020.8 |
| 20260905222651 | 68 | 0 | 1.0 | 3.0 | 0.00 | 0.00 | 0.00 | 62 | 1020.7 |
| 20260905222148 | 67 | 225 | 2.0 | 4.0 | 0.00 | 0.00 | 0.00 | 64 | 1020.6 |
| 20260905221647 | 66 | 67 | 4.0 | 4.0 | 0.00 | 0.00 | 0.00 | 65 | 1020.7 |
| 20260905221147 | 65 | 0 | 2.0 | 3.0 | 0.00 | 0.00 | 0.00 | 66 | 1020.7 |
| 20260905220642 | 64 | 45 | 1.0 | 3.0 | 0.00 | 0.00 | 0.00 | 67 | 1020.6 |
| 20260905220144 | 64 | 45 | 1.0 | 3.0 | 0.00 | 0.00 | 0.00 | 69 | 1020.7 |
| 20260905215637 | 63 | 45 | 3.0 | 4.0 | 0.00 | 0.00 | 0.00 | 70 | 1020.7 |
| 20260905215135 | 62 | 45 | 2.0 | 4.0 | 0.00 | 0.00 | 0.00 | 71 | 1020.5 |
| 20260905214634 | 61 | 0 | 1.0 | 4.0 | 0.00 | 0.00 | 0.00 | 72 | 1020.4 |
| 20260905214130 | 60 | 45 | 3.0 | 4.0 | 0.00 | 0.00 | 0.00 | 73 | 1020.3 |
| 20260905213628 | 60 | 45 | 3.0 | 4.0 | 0.00 | 0.00 | 0.00 | 74 | 1020.3 |
| 20260905213125 | 59 | 0 | 3.0 | 4.0 | 0.00 | 0.00 | 0.00 | 74 | 1020.3 |
| 20260905212625 | 58 | 11 | 2.0 | 3.0 | 0.00 | 0.00 | 0.00 | 73 | 1020.3 |
| 20260905212121 | 58 | 45 | 1.0 | 3.0 | 0.00 | 0.00 | 0.00 | 75 | 1020.4 |
| 20260905211620 | 57 | 22 | 2.0 | 3.0 | 0.00 | 0.00 | 0.00 | 75 | 1020.2 |
| 20260905211117 | 57 | 45 | 1.0 | 1.0 | 0.00 | 0.00 | 0.00 | 72 | 1020.1 |
| 20260905210616 | 56 | 78 | 1.0 | 1.0 | 0.00 | 0.00 | 0.00 | 72 | 1020.2 |
| 20260905210115 | 55 | 78 | 0.0 | 1.0 | 0.00 | 0.00 | 0.00 | 72 | 1020.1 |
| 20260905205612 | 55 | 90 | 0.0 | 0.0 | 0.00 | 0.00 | 0.00 | 72 | 1020.1 |
| 20260905205108 | 54 | 90 | 0.0 | 0.0 | 0.00 | 0.00 | 0.00 | 72 | 1020.2 |
| 20260905204605 | 53 | 135 | 0.0 | 0.0 | 0.00 | 0.00 | 0.00 | 73 | 1020.1 |
| 20260905204108 | 53 | 135 | 0.0 | 0.0 | 0.00 | 0.00 | 0.00 | 71 | 1020.0 |
| 20260905203602 | 53 | 135 | 0.0 | 1.0 | 0.00 | 0.00 | 0.00 | 71 | 1020.0 |
| 20260905203101 | 52 | 78 | 1.0 | 1.0 | 0.00 | 0.00 | 0.00 | 72 | 1020.0 |
| 20260905202556 | 52 | 135 | 0.0 | 0.0 | 0.00 | 0.00 | 0.00 | 72 | 1019.9 |
| 20260905202104 | 52 | 135 | 0.0 | 0.0 | 0.00 | 0.00 | 0.00 | 70 | 1019.7 |
| 20260905201552 | 52 | 225 | 0.0 | 0.0 | 0.00 | 0.00 | 0.00 | 70 | 1019.6 |